OBJECT A, 57288

Orbit data source: Space-Track

You're viewing an Uncataloged Satellite

Recently launched and/or uncataloged satellites may have evolving metadata. Metadata may include but not limited to: Owner, Maufacturer, Bus, Motor, and Mission.

OBJECT A, 57288 is a satellite owned by Zhongguo Xingwang (CN) in LEO that was launched on Sun, 09 Jul 2023 UTC via a CHANG ZHENG 2C/YZ-1S launch vehicle from the Jiuquan Satellite Launch Center, China (JSC). Unknown objects in Earth's orbit typically refer to objects detected orbiting the Earth but have not yet been identified or cataloged. These objects could be anything from previously untracked satellites, spent rocket stages, debris from satellite collisions, or even natural meteoroids temporarily captured by Earth's gravity.

Loading next visibility...
Identifier
57288, 2023-095A
Orbit
LEO
Country
Flag of CNCN / PRC
Related business
Manufacturer
CAST
Mission
Operational Civil Communications
Bus & Motor
Unknown
Mass
~300 kg wet, ~300 kg dry
Launch date (UTC)
2023-07-09 (3 years ago)
Launch vehicle
CHANG ZHENG 2C/YZ-1S
Launch site
Jiuquan Satellite Launch Center, China (JSC)
Object type
Unknown
Shape & HBR
Box + 2 Pan, 1.3 m
Radar Cross Section
2.320 m², Large (>1 m²)

Expand to show TLE details & history
Last TLE update: 22 hours ago

TLE from 22 hours ago
0 OBJECT A
1 57288U 23095A   26172.51431623  .00000038  00000-0  41955-4 0  9991
2 57288  86.5028   3.2768 0017866 172.8985 187.2414 13.39542826144330
Epoch: 2026-06-21T12:20Z
TLE epoch observation values (Epoch: 2026-06-21T12:20:36.922Z)
Latitude
-0.00003°
Longitude
-91.59054°
Altitude
1,127.175 km
Speed
7.283 km/s
True Right ascension
00h 13m 06s
True Declination
0° 00' 00"
Sunlit
Object was in daylight at epoch
Visualization orbit readout
Latitude
Unknown
Longitude
Unknown
Altitude
Unknown
Speed
Unknown
Apparent Right ascension
Unknown
Apparent Declination
Unknown
Sunlit
N/A
Visualization observer readout
Local Sidereal Time
21:28:05
Azimuth
Unknown
Elevation
Unknown
Doppler factor
Unknown
Orbital elements
Apogee altitude
1,121.455 km
Perigee altitude
1,094.706 km
Semi-major axis
7,486.218 km
Eccentricity
0.00179
Inclination
86.5028°
RAAN
3.2768°
Arg. of periapsis
172.8985°
True anomaly
187.21565°
Mean anomaly
187.2414°
Eccentric anomaly
187.22852°
Mean motion
3.35081 °/min
Orbital period
107.44 mins
BSTAR
0.000041955
Loading maneuver chart data...
Computing Atmospheric mass density...
Loading historical data...
Loading historical data...
Loading historical data...
Loading historical data...
Loading historical data...
Loading historical data...
Loading historical data...
Other satellites on launch #95 in the year 2023 (2023-07-09 UTC)

Documentation

Showing up to 5 results
|